This demonstration page uses our WeatherBlox Daily Observations layout. Learn more.

Left ArrowRight Arrow

Hourly Observations for January 16, 2022

Temp ( °F °C ) Dew Point ( °F °C ) Humidity (%) Winds ( mph kmh ) Pressure ( in mb ) Visibility ( mi km ) Precip ( " mm )
12:15 am 00:15 Clear 26 -3.5 7 -13.7 46 46 SSW 10 17 30.19 1022 10 16 0.00 0.00
12:35 am 00:35 Clear 26 -3.2 8 -13.1 47 47 SSW 14 22 30.18 1022 10 16 0.00 0.00
12:55 am 00:55 Clear 28 -2.5 9 -12.7 46 46 SW 13 20 30.17 1022 10 16 0.00 0.00
1:15 am 01:15 Clear 28 -2.5 10 -12.4 47 47 SW 14 22 30.12 1020 10 16 0.00 0.00
1:35 am 01:35 Clear 28 -2.5 11 -11.9 49 49 SW 8 13 30.13 1020 10 16 0.00 0.00
1:55 am 01:55 Clear 28 -2.5 11 -11.5 50 50 SW 8 13 30.11 1020 10 16 0.00 0.00
2:15 am 02:15 Clear 28 -2.5 12 -11 52 52 SW 6 9 30.11 1020 10 16 0.00 0.00
2:35 am 02:35 Clear 26 -3.3 13 -10.8 57 57 WSW 6 9 30.12 1020 10 16 0.00 0.00
2:55 am 02:55 Clear 24 -4.5 12 -11 61 61 WSW 6 9 30.12 1020 10 16 0.00 0.00
3:15 am 03:15 Clear 22 -5.4 12 -11 65 65 W 5 7 30.12 1020 10 16 0.00 0.00
3:35 am 03:35 Clear 23 -5.2 13 -10.8 65 65 SW 3 6 30.11 1020 10 16 0.00 0.00
3:55 am 03:55 Clear 22 -5.4 13 -10.6 67 67 W 6 9 30.10 1019 10 16 0.00 0.00
4:15 am 04:15 Clear 25 -3.8 14 -9.8 63 63 W 6 9 30.07 1018 10 16 0.00 0.00
4:35 am 04:35 Clear 26 -3.5 15 -9.5 64 64 W 6 9 30.05 1018 10 16 0.00 0.00
4:55 am 04:55 Clear 25 -3.7 15 -9.3 65 65 WNW 9 15 30.06 1018 10 16 0.00 0.00
5:15 am 05:15 Clear 25 -4.1 16 -9.1 69 69 WNW 7 11 30.07 1018 10 16 0.00 0.00
5:35 am 05:35 Clear 24 -4.6 15 -9.2 71 71 W 8 13 30.07 1018 10 16 0.00 0.00
5:55 am 05:55 Partly Cloudy 24 -4.2 17 -8.3 73 73 WNW 13 20 30.07 1018 10 16 0.00 0.00
6:15 am 06:15 Mostly Cloudy 26 -3.6 19 -7.4 75 75 WNW 9 15 30.05 1018 10 16 0.00 0.00
6:35 am 06:35 Partly Cloudy 25 -4.1 19 -7.5 77 77 WNW 10 17 30.06 1018 10 16 0.00 0.00
6:55 am 06:55 Clear 25 -4.1 19 -7.2 79 79 WNW 12 19 30.06 1018 10 16 0.00 0.00
7:15 am 07:15 Clear 26 -3.6 20 -6.7 79 79 WNW 12 19 30.05 1018 10 16 0.00 0.00
7:35 am 07:35 Clear 26 -3.2 20 -6.4 79 79 WNW 12 19 30.06 1018 10 16 0.00 0.00
7:55 am 07:55 Clear 27 -2.9 21 -6.1 79 79 WNW 13 20 30.06 1018 10 16 0.00 0.00
8:15 am 08:15 Sunny 27 -3 21 -6.2 79 79 WNW 13 20 30.07 1018 10 16 0.00 0.00
8:35 am 08:35 Sunny 28 -2 21 -5.9 75 75 WNW 12 19 30.06 1018 10 16 0.00 0.00
8:55 am 08:55 Sunny 30 -1 22 -5.5 72 72 WNW 10 17 30.06 1018 10 16 0.00 0.00
9:15 am 09:15 Sunny 32 0.1 23 -5.2 68 68 WNW 13 20 30.06 1018 10 16 0.00 0.00
9:35 am 09:35 Sunny 35 1.6 23 -5 62 62 WNW 14 22 30.05 1018 10 16 0.00 0.00
9:55 am 09:55 Sunny 37 2.7 23 -5 57 57 WNW 14 22 30.04 1017 10 16 0.00 0.00
10:15 am 10:15 Sunny 40 4.4 24 -4.5 53 53 NW 13 20 30.02 1017 10 16 0.00 0.00
10:35 am 10:35 Sunny 43 6.3 25 -4 48 48 NW 14 22 30.01 1016 10 16 0.00 0.00
10:55 am 10:55 Sunny 49 9.5 27 -3 42 42 NNW 17 28 29.98 1015 10 16 0.00 0.00
11:15 am 11:15 Sunny 51 10.4 26 -3.5 38 38 NNW 21 33 29.97 1015 10 16 0.00 0.00
11:35 am 11:35 Sunny 51 10.7 26 -3.6 37 37 NNW 21 33 29.96 1015 10 16 0.00 0.00
11:55 am 11:55 Sunny 52 11.1 26 -3.6 36 36 NNW 24 39 29.96 1015 10 16 0.00 0.00
12:15 pm 12:15 Sunny 53 11.6 26 -3.5 35 35 N 21 33 29.97 1015 10 16 0.00 0.00
12:35 pm 12:35 Sunny 53 11.5 26 -3.2 36 36 N 22 35 29.96 1014 10 16 0.00 0.00
12:55 pm 12:55 Sunny 52 11.2 27 -3 37 37 N 18 30 29.96 1015 10 16 0.00 0.00
1:15 pm 13:15 Sunny 52 11.3 27 -3 37 37 NNW 18 30 29.96 1015 10 16 0.00 0.00
1:35 pm 13:35 Sunny 53 11.5 27 -2.9 37 37 NNW 20 31 29.96 1014 10 16 0.00 0.00
1:55 pm 13:55 Sunny 53 11.6 27 -3 36 36 N 24 39 29.96 1014 10 16 0.00 0.00
2:15 pm 14:15 Sunny 53 11.5 27 -3 36 36 NNW 23 37 29.96 1014 10 16 0.00 0.00
2:35 pm 14:35 Sunny 53 11.5 27 -2.8 37 37 NNW 25 41 29.96 1014 10 16 0.00 0.00
2:55 pm 14:55 Mostly Cloudy 52 11.2 28 -2.5 39 39 N 23 37 29.97 1015 10 16 0.00 0.00
3:15 pm 15:15 Mostly Cloudy 50 10 26 -3.5 39 39 N 28 44 30.00 1016 10 16 0.00 0.00
3:35 pm 15:35 Mostly Cloudy 49 9.3 25 -3.8 40 40 N 24 39 30.03 1017 10 16 0.00 0.00
3:55 pm 15:55 Mostly Cloudy 48 8.7 25 -3.7 42 42 N 23 37 30.03 1017 10 16 0.00 0.00
4:15 pm 16:15 Partly Cloudy 47 8.5 26 -3.5 43 43 NNW 21 33 30.04 1017 10 16 0.00 0.00
4:35 pm 16:35 Sunny 46 8 26 -3.4 45 45 NNW 13 20 30.04 1017 10 16 0.00 0.00
4:55 pm 16:55 Sunny 46 7.5 26 -3.4 46 46 NNW 14 22 30.06 1018 10 16 0.00 0.00
5:15 pm 17:15 Sunny 44 6.5 26 -3.4 50 50 NNW 14 22 30.07 1018 10 16 0.00 0.00
5:35 pm 17:35 Sunny 40 4.6 25 -3.8 55 55 NW 10 17 30.09 1019 10 16 0.00 0.00
5:55 pm 17:55 Clear 39 3.9 25 -3.8 58 58 NW 10 17 30.10 1019 10 16 0.00 0.00
6:15 pm 18:15 Clear 36 2.1 24 -4.5 62 62 NW 12 19 30.13 1020 10 16 0.00 0.00
6:35 pm 18:35 Clear 34 1 24 -4.7 66 66 NNW 12 19 30.15 1021 10 16 0.00 0.00
6:55 pm 18:55 Clear 31 -0.5 22 -5.6 69 69 NNW 10 17 30.17 1022 10 16 0.00 0.00
7:15 pm 19:15 Clear 29 -1.9 20 -6.4 72 72 NNW 9 15 30.19 1022 10 16 0.00 0.00
7:35 pm 19:35 Clear 29 -1.8 21 -6 73 73 WNW 8 13 30.20 1023 10 16 0.00 0.00
7:55 pm 19:55 Clear 27 -2.8 20 -6.7 75 75 WNW 7 11 30.22 1023 10 16 0.00 0.00
8:15 pm 20:15 Clear 24 -4.5 19 -7.3 81 81 W 9 15 30.24 1024 10 16 0.00 0.00
8:35 pm 20:35 Clear 25 -3.8 19 -7 79 79 WNW 8 13 30.22 1023 10 16 0.00 0.00
8:55 pm 20:55 Clear 25 -4.1 19 -7 80 80 W 8 13 30.22 1023 10 16 0.00 0.00
9:15 pm 21:15 Clear 23 -5.1 18 -7.7 82 82 W 7 11 30.23 1024 10 16 0.00 0.00
9:35 pm 21:35 Clear 21 -6 17 -8.2 85 85 W 10 17 30.24 1024 10 16 0.00 0.00
9:55 pm 21:55 Clear 23 -4.9 19 -7.1 85 85 W 9 15 30.22 1023 10 16 0.00 0.00
10:15 pm 22:15 Clear 20 -6.8 16 -9 85 85 W 8 13 30.24 1024 10 16 0.00 0.00
10:35 pm 22:35 Clear 20 -6.6 17 -8.6 86 86 WNW 8 13 30.23 1024 10 16 0.00 0.00
10:55 pm 22:55 Clear 20 -6.8 16 -8.8 86 86 WNW 7 11 30.24 1024 10 16 0.00 0.00
11:15 pm 23:15 Clear 20 -6.7 17 -8.5 87 87 WNW 8 13 30.24 1024 10 16 0.00 0.00
11:35 pm 23:35 Clear 20 -6.9 16 -9 85 85 NW 9 15 30.24 1024 10 16 0.00 0.00
11:55 pm 23:55 Clear 19 -7.3 16 -9.1 87 87 NW 8 13 30.24 1024 10 16 0.00 0.00

Powered by AerisWeather